Regional Weather Roundup
Issued by NWS

Home | Current Version | Previous Version | Text Only | Print | Product List | Glossary Off
Versions: 1 2 3 4 5 6 7 8 9 10 11 12 13 14 15 16 17 18 19 20 21 22 23 24 25 26 27 28 29 30 31 32 33 34 35 36 37 38 39 40 41 42 43 44 45 46 47 48 49 50

330
ASUS45 KPSR 231710
RWRAZ

ARIZONA HOURLY REGIONAL WEATHER ROUNDUP
NATIONAL WEATHER SERVICE PHOENIX AZ
1000 AM MST SUN JUL 23 2017

NOTE: FAIR INDICATES FEW OR NO CLOUDS BELOW 12,000 FEET WITH NO
SIGNIFICANT WEATHER AND/OR OBSTRUCTIONS TO VISIBILITY.

AZZ001>003-036-231800-
NORTHWEST ARIZONA

CITY           SKY/WX    TMP DP  RH WIND       PRES   REMARKS
KINGMAN        FAIR      89  60  37 W10       30.02S
$$

AZZ004>008-015-016-018-231800-
NORTH CENTRAL ARIZONA

CITY           SKY/WX    TMP DP  RH WIND       PRES   REMARKS
GRAND CANYON   FAIR      81  50  33 MISG      30.26S
WILLIAMS       FAIR      77  54  44 VRB6G14   30.26F
PRESCOTT       FAIR      75  64  68 SE7       30.16S
FLAGSTAFF      FAIR      75  55  49 SE9       30.29S
PAYSON         FAIR      79  63  57 SW6       30.19S
PAGE           FAIR      88  54  31 N7        30.08F
$$

AZZ009>014-017-231800-
NORTHEAST ARIZONA

CITY           SKY/WX    TMP DP  RH WIND       PRES   REMARKS
WINSLOW        FAIR      82  59  45 NE6       30.15S
SAINT JOHNS    FAIR      78  54  43 VRB3      30.19S
WINDOW ROCK    FAIR      78  51  38 CALM      30.28S
SHOW LOW       FAIR      72  57  60 S9        30.26R
$$

AZZ540-542>544-546-548-231800-
GREATER PHOENIX AREA

CITY           SKY/WX    TMP DP  RH WIND       PRES   REMARKS
PHOENIX        PTSUNNY   93  65  39 VRB3      29.88S
BUCKEYE        FAIR      90  64  43 CALM      29.89S
GLENDALE       PTSUNNY   93  64  38 CALM      29.90S
LUKE AFB       FAIR      91  65  41 CALM      29.88S
DEER VALLEY    FAIR      91  67  44 S9        29.90S
SCOTTSDALE     FAIR      90  65  43 SE6       29.92S
MESA-FALCON    PTSUNNY   90  70  51 SE7       29.91S
MESA-GATEWAY   PTSUNNY   88  68  51 S6        29.92S
CHANDLER       SUNNY     90  66  45 VRB5      29.90S
$$

AZZ539-553-231800-
SOUTHWEST MARICOPA COUNTY AND PINAL COUNTY

CITY           SKY/WX    TMP DP  RH WIND       PRES   REMARKS
CASA GRANDE    FAIR      92  66  42 SW5       29.92S
GILA BEND      FAIR      93  65  40 S6        29.86S
$$

AZZ503-504-507>509-231800-
SOUTHEAST ARIZONA

CITY           SKY/WX    TMP DP  RH WIND       PRES   REMARKS
TUCSON         PTSUNNY   82  69  64 CALM      30.02S
DAVIS-MONTHAN  FAIR      84  69  59 CALM      30.01S
RYAN FIELD     SUNNY     84  70  61 W5        30.01S
NOGALES        FAIR      74  68  81 SW3       30.09S
SIERRA VISTA   CLOUDY    77  64  65 E5        30.15S
DOUGLAS        PTSUNNY   75  66  73 CALM      30.11S
SAFFORD        FAIR      81  67  62 VRB3      30.04S
$$

AZZ532-231800-
SOUTHWEST ARIZONA

CITY           SKY/WX    TMP DP  RH WIND       PRES   REMARKS
YUMA           FAIR      97  63  32 SE17G26   29.80S
$$

CAZ041-043-047-048-061-525>527-560>570-231800-
SOUTHERN CALIFORNIA

CITY           SKY/WX    TMP DP  RH WIND       PRES   REMARKS
DOWNTOWN L.A.  FAIR      79  65  62 CALM      29.89S
L.A. AIRPORT   FAIR      75  66  73 SW7       29.90S
SAN DIEGO      CLOUDY    71  61  70 SW6       29.92F
BURBANK        FAIR      77  61  57 SE8       29.90S
ONTARIO        FAIR      78  63  59 SW7       29.91S
RIVERSIDE      FAIR      80  66  62 VRB3      29.90S
PALM SPRINGS   FAIR      97  59  28 VRB5      29.81F
EL CENTRO NAS  FAIR      94  69  44 E6        29.79S
IMPERIAL       FAIR      94  74  52 E3        29.76S HX 104
BLYTHE         FAIR      98  61  29 S15G26    29.80S
NEEDLES        FAIR     102  58  23 E3        29.81S HX 102
$$

NVZ020-UTZ003-231800-
SOUTHERN NEVADA-UTAH

CITY           SKY/WX    TMP DP  RH WIND       PRES   REMARKS
LAS VEGAS      FAIR      97  57  26 CALM      29.89S
SALT LAKE CITY FAIR      87  46  24 S6        30.07F
$$

NMZ009-TXZ055-231800-
NEW MEXICO-WEST TEXAS

CITY           SKY/WX    TMP DP  RH WIND       PRES   REMARKS
ALBUQUERQUE    PTSUNNY   82  52  35 E13       30.20S
EL PASO        FAIR      79  65  62 SE9       30.10S
$$


........................KEY........................
SKY/WX - SKY CONDITION/WEATHER
TMP    - TEMPERATURE IN FAHRENHEIT
DP     - DEW POINT IN FAHRENHEIT
RH     - RELATIVE HUMIDITY IN PERCENT
WIND   - DIRECTION AND SPEED IN MILES PER HOUR (MPH)
VRB    - VARIABLE WIND DIRECTION
PRES   - MEAN SEA LEVEL PRESSURE IN INCHES OF MERCURY
         F - FALLING PRESSURE   R - RISING PRESSURE
         S - STEADY PRESSURE
VSB    - VISIBILITY IN MILES
HX     - HEAT INDEX IN FAHRENHEIT
WCI    - WIND CHILL INDEX IN FAHRENHEIT
TC     - TEMPERATURE IN CELSIUS WHICH IS ALSO KNOWN AS
         TEMPERATURE IN CENTIGRADE
AFB    - AIR FORCE BASE
         LUKE AFB IS LUKE AIR FORCE BASE
         DAVIS-MONTHAN IS DAVIS-MONTHAN AIR FORCE BASE
NAS    - NAVAL AIR STATION
         EL CENTRO NAS IS EL CENTRO NAVAL AIR STATION
N/A    - NOT AVAILABLE





USA.gov is the U.S. government's official web portal to all federal, state and local government web resources and services.